KC4KQE Weather Reports


Display with metric or nautical units.
time (UTC)temp
F
wind
direction
speed
MPH
gust
MPH
rain 1hr
in
rain 24hr
in
rain mn
in
humidity
%
barometer
mb
20171217165954 52 151 1.0 3.0 0.00 0.22 0.00 79 1013.5
20171217164954 52 150 0.0 4.0 0.00 0.22 0.00 79 1013.3
20171217163954 51 136 1.0 2.0 0.00 0.22 0.00 80 1013.2
20171217163454 51 135 0.0 1.0 0.00 0.22 0.00 80 1013.1
20171217160954 50 136 0.0 4.0 0.00 0.22 0.00 81 1013.1
20171217160454 50 133 0.0 2.0 0.00 0.22 0.00 82 1013.0
20171217155954 50 133 0.0 3.0 0.00 0.22 0.00 82 1012.8
20171217152954 53 229 2.0 4.0 0.01 0.22 0.00 65 1011.8
20171217145454 50 5 6.0 12.0 0.01 0.22 0.00 79 1011.4
20171217140454 50 32 6.0 15.0 0.00 0.21 0.00 79 1011.3
20171217133454 48 9 4.0 14.0 0.00 0.21 0.00 85 1011.3
20171217122954 48 0 9.0 11.0 0.07 0.21 0.00 87 1011.5
20171217112454 49 121 4.0 15.0 0.09 0.09 0.00 83 1011.2
20171217104954 55 263 4.0 6.0 0.00 0.00 0.00 40 1009.5
20171217100454 56 121 0.0 2.0 0.00 0.00 0.00 36 1008.9
20171217095954 55 121 1.0 3.0 0.00 0.00 0.00 36 1008.9
20171217095454 56 133 3.0 3.0 0.00 0.00 0.00 36 1008.9
20171217093954 60 134 0.0 1.0 0.00 0.00 0.00 34 1008.7
20171217090454 59 143 2.0 3.0 0.00 0.00 0.00 33 1009.0
20171217084954 60 142 1.0 5.0 0.00 0.00 0.00 32 1008.9
20171217084454 60 147 1.0 10.0 0.00 0.00 0.00 32 1008.8
20171217082454 58 175 0.0 2.0 0.00 0.00 0.00 32 1008.8
20171217071454 59 152 1.0 4.0 0.00 0.00 0.00 28 1008.7
20171217064954 59 128 1.0 5.0 0.00 0.00 0.00 28 1008.6
20171217062954 60 146 0.0 3.0 0.00 0.00 0.00 26 1008.5
20171217025954 53 32 2.0 2.0 0.00 0.00 0.00 25 1007.9
20171217020954 54 90 1.0 5.0 0.00 0.00 0.00 24 1007.8
20171217020454 53 127 2.0 3.0 0.00 0.00 0.00 25 1007.8
20171217014954 54 127 0.0 2.0 0.00 0.00 0.00 23 1007.7
20171217014454 54 127 0.0 2.0 0.00 0.00 0.00 23 1007.7
20171217013454 55 127 0.0 2.0 0.00 0.00 0.00 22 1007.6
20171216235454 64 147 1.0 2.0 0.00 0.00 0.00 16 1006.8
20171216234954 64 148 2.0 3.0 0.00 0.00 0.00 16 1006.8
20171216231954 65 152 3.0 4.0 0.00 0.00 0.00 15 1006.7
20171216230454 65 143 2.0 5.0 0.00 0.00 0.00 15 1006.6
20171216223454 66 181 3.0 8.0 0.00 0.00 0.00 14 1006.6
20171216211954 67 168 3.0 8.0 0.00 0.00 0.00 12 1006.6
20171216210042 67 119 7.0 12.0 0.00 0.00 0.00 12 1006.7
20171216184922 63 160 2.0 13.0 0.00 0.00 0.00 14 1008.6
20171216183422 62 127 5.0 8.0 0.00 0.00 0.00 15 1008.8